This is the latest recevied weather packets stored in our database for station/object KB4RFE. If no packets are shown the sender has not sent any weather packets the latest 10 day(s).
| Time | Temp. | Humidity | Pressure | Rain* | Wind** | Luminosity | Snow |
|---|---|---|---|---|---|---|---|
| 1777944194 | 20.56° C | 63% | 1019.9 hPa | 0 mm | - | 0 W/m² | - |
| 1777943890 | 20.56° C | 62% | 1019.9 hPa | 0 mm | - | 0 W/m² | - |
| 1777943587 | 20.56° C | 62% | 1019.8 hPa | 0 mm | - | 0 W/m² | - |
| 1777943283 | 20.56° C | 62% | 1019.8 hPa | 0 mm | - | 0 W/m² | - |
| 1777942979 | 20.56° C | 63% | 1019.6 hPa | 0 mm | - | 0 W/m² | - |
| 1777942675 | 20.56° C | 63% | 1019.7 hPa | 0 mm | - | 0 W/m² | - |
| 1777942372 | 20.56° C | 62% | 1019.6 hPa | 0 mm | - | 0 W/m² | - |
| 1777942069 | 20.56° C | 62% | 1019.7 hPa | 0 mm | - | 0 W/m² | - |
| 1777941765 | 20.56° C | 61% | 1019.7 hPa | 0 mm | - | 0 W/m² | - |
| 1777941463 | 20.56° C | 62% | 1019.5 hPa | 0 mm | - | 0 W/m² | - |
| 1777941161 | 20.56° C | 62% | 1019.6 hPa | 0 mm | - | 0 W/m² | - |
| 1777940857 | 20.56° C | 62% | 1019.5 hPa | 0 mm | - | 0 W/m² | - |
| 1777940554 | 20.56° C | 60% | 1019.5 hPa | 0 mm | - | 0 W/m² | - |
| 1777940251 | 20.56° C | 61% | 1019.4 hPa | 0 mm | - | 0 W/m² | - |
| 1777939949 | 20.56° C | 60% | 1019.6 hPa | 0 mm | - | 1 W/m² | - |
| 1777939646 | 20.56° C | 60% | 1019.7 hPa | 0 mm | - | 1 W/m² | - |
| 1777939344 | 20.56° C | 59% | 1019.7 hPa | 0 mm | - | 2 W/m² | - |
| 1777939040 | 20.56° C | 58% | 1019.7 hPa | 0 mm | - | 3 W/m² | - |
| 1777938736 | 20.56° C | 58% | 1019.5 hPa | 0 mm | - | 6 W/m² | - |
| 1777938434 | 20.56° C | 58% | 1019.5 hPa | 0 mm | - | 8 W/m² | - |
| 1777938131 | 20.56° C | 56% | 1019.5 hPa | 0 mm | - | 11 W/m² | - |
| 1777937827 | 20.56° C | 55% | 1019.4 hPa | 0 mm | - | 14 W/m² | - |
| 1777937523 | 21.11° C | 55% | 1019.5 hPa | 0 mm | - | 19 W/m² | - |
| 1777937220 | 21.11° C | 53% | 1019.3 hPa | 0 mm | - | 23 W/m² | - |
| 1777936917 | 21.11° C | 52% | 1019.5 hPa | 0 mm | - | 27 W/m² | - |
* Rain latest hour (hover to see other rain measurements)
** Current wind speed in m/s (hover to see current wind gust speed)